Location: Blue Sky Observatory
(43.1153°N, 70.9036°W)
Time: 15:03:19
(UTC-04:00)

Amateur Radio Satellites - All Passes

Search period start: 17 April 2014 14:33
Search period end: 18 April 2014 14:33
Location: Blue Sky Observatory, 43.1153°N, 70.9036°W

Satellite Date Start Highest point End Downlink Frequencies (MHz)
Time Altitude Azimuth
Gurwin Techsat 1B 17 Apr 14:33:29 14:38:41 59° 72° (ENE) 14:43:54 435.225 FM
JAS-1B 17 Apr 14:41:14 14:48:20 36° 66° (ENE) 14:54:26 435.800 - 435.900 CW/SSB
AO-27 17 Apr 14:55:02 14:59:30 29° 265° (W) 15:04:00 436.795 MHz FM
OPAL 17 Apr 14:55:46 15:00:26 33° 98° (E) 15:05:06 ?
AO-7 17 Apr 15:05:33 15:12:57 38° 59° (ENE) 15:20:22 29.400 - 29.500 MHz
ITAMSAT 1 17 Apr 15:06:50 15:10:56 23° 266° (W) 15:15:03 435.822 SSB
TMSAT-1 17 Apr 15:23:06 15:28:23 72° 258° (WSW) 15:33:41 436.925 FM
AO-Echo 17 Apr 15:37:52 15:40:59 16° 270° (W) 15:44:06 ?
ISS 17 Apr 15:50:00 15:52:58 30° 138° (SE) 15:55:58 145.800 FM
Uosat F 17 Apr 15:51:45 15:56:47 85° 75° (ENE) 16:01:50 435.120 FM
SO-50 17 Apr 15:58:12 16:02:31 49° 119° (ESE) 16:06:53 436.795 FM
Gurwin Techsat 1B 17 Apr 16:15:24 16:19:02 19° 269° (W) 16:22:42 435.225 FM
RS-15 17 Apr 16:21:20 16:32:20 89° 57° (ENE) 16:43:37 29.354 - 29.394 USB, Beacon 29.352 USB
JAS-1B 17 Apr 16:30:47 16:38:48 49° 260° (W) 16:45:34 435.800 - 435.900 CW/SSB
OPAL 17 Apr 16:34:37 16:39:17 34° 295° (WNW) 16:43:57 ?
Hamsat 17 Apr 16:53:56 16:56:03 14° 63° (ENE) 16:58:12 145.90 MHz
UOSAT-12 17 Apr 16:57:03 16:58:17 11° 107° (ESE) 16:59:32 437.025 FM, 437.400 FM
AO-7 17 Apr 16:57:27 17:05:28 53° 258° (WSW) 17:13:33 29.400 - 29.500 MHz
ISS 17 Apr 17:26:28 17:29:40 41° 335° (NNW) 17:32:52 145.800 FM
Uosat F 17 Apr 17:34:40 17:36:13 11° 272° (W) 17:37:46 435.120 FM
SO-50 17 Apr 17:39:43 17:43:20 24° 318° (NW) 17:47:00 436.795 FM
SO-67 17 Apr 18:10:24 18:12:17 14° 66° (ENE) 18:14:10 435.3500 MHz FM
Hamsat 17 Apr 18:27:25 18:31:33 59° 260° (W) 18:35:45 145.90 MHz
UOSAT-12 17 Apr 18:33:08 18:37:41 87° 304° (NW) 18:42:23 437.025 FM, 437.400 FM
RS-15 17 Apr 18:35:16 18:43:13 24° 258° (WSW) 18:51:21 29.354 - 29.394 USB, Beacon 29.352 USB
JAS-2 17 Apr 18:45:14 18:51:07 67° 73° (ENE) 18:56:28 435.800 - 435.900 CW/SSB, 435.910 FM
Saudisat 1A 17 Apr 18:56:52 18:59:56 18° 39° (NE) 19:02:59 436.775 MHz
ISS 17 Apr 19:04:32 19:07:03 19° 355° (N) 19:09:34 145.800 FM
STRAND 1 17 Apr 19:08:48 19:13:44 48° 100° (E) 19:18:38 ?
SO-67 17 Apr 19:41:53 19:45:08 37° 262° (W) 19:48:25 435.3500 MHz FM
HO-68 17 Apr 19:52:43 19:58:57 34° 61° (ENE) 20:05:12 435.675 MHz FM
UOSAT-12 17 Apr 20:15:41 20:18:34 16° 324° (NW) 20:21:29 437.025 FM, 437.400 FM
JAS-2 17 Apr 20:32:57 20:36:37 17° 268° (W) 20:40:06 435.800 - 435.900 CW/SSB, 435.910 FM
Saudisat 1A 17 Apr 20:35:37 20:40:02 71° 238° (WSW) 20:44:23 436.775 MHz
ISS 17 Apr 20:41:46 20:44:37 25° 15° (NNE) 20:47:27 145.800 FM
STRAND 1 17 Apr 20:48:43 20:52:37 23° 297° (WNW) 20:56:30 ?
FUNcube-1 17 Apr 21:18:13 21:20:46 16° 64° (ENE) 21:23:18 145.950 - 145.970 MHz USB
Oscar 11 17 Apr 21:32:00 21:36:16 69° 75° (ENE) 21:40:35 145.825 FM, Beacon 2401.500 USB
HO-68 17 Apr 21:39:30 21:46:23 51° 259° (W) 21:53:20 435.675 MHz FM
MaSat-1 17 Apr 22:05:58 22:08:56 77° 116° (ESE) 22:11:34 437.345 MHz
ISS 17 Apr 22:18:19 22:21:42 85° 214° (SW) 22:25:03 145.800 FM
SO-50 17 Apr 22:49:53 22:51:51 12° 32° (NNE) 22:53:49 436.795 FM
FUNcube-1 17 Apr 22:52:44 22:56:50 48° 260° (W) 23:00:54 145.950 - 145.970 MHz USB
Oscar 11 17 Apr 23:11:47 23:12:57 11° 271° (W) 23:14:07 145.825 FM, Beacon 2401.500 USB
Sapphire 17 Apr 23:44:35 23:47:02 13° 103° (ESE) 23:49:28 437.095 MHz 1200 baud AX-25 AFSK
ISS 17 Apr 23:56:53 23:57:57 11° 230° (SW) 23:59:00 145.800 FM
PCSat 18 Apr 00:26:48 00:31:37 34° 111° (ESE) 00:36:28 145.825 MHz
SO-50 18 Apr 00:28:46 00:33:22 60° 53° (NE) 00:38:01 436.795 FM
UOSAT-12 18 Apr 01:22:37 01:25:57 19° 38° (NE) 01:29:16 437.025 FM, 437.400 FM
Sapphire 18 Apr 01:24:14 01:29:40 87° 300° (WNW) 01:35:07 437.095 MHz 1200 baud AX-25 AFSK
AO-27 18 Apr 01:29:32 01:31:08 11° 88° (E) 01:32:44 436.795 MHz FM
ITAMSAT 1 18 Apr 01:39:42 01:42:29 15° 90° (E) 01:45:15 435.822 SSB
Oscar 19 18 Apr 01:47:10 01:51:51 33° 96° (E) 01:56:29 437.125 CW, 437.150 USB
Oscar 16 18 Apr 01:54:58 01:59:53 41° 98° (E) 02:04:46 437.025 USB, Beacon 2401.1428
KITSAT 1 18 Apr 01:55:16 02:01:10 23° 103° (ESE) 02:07:04 435.175 FM
AO-Echo 18 Apr 02:04:12 02:07:33 19° 92° (E) 02:10:50 ?
PCSat 18 Apr 02:09:57 02:14:58 38° 309° (NW) 02:20:02 145.825 MHz
SO-50 18 Apr 02:10:28 02:13:31 17° 250° (WSW) 02:16:35 436.795 FM
OPAL 18 Apr 02:11:35 02:16:32 64° 70° (ENE) 02:21:35 ?
Uribyol 2 18 Apr 02:26:58 02:31:53 42° 99° (E) 02:36:47 436.500 FM
Gurwin Techsat 1B 18 Apr 02:49:29 02:53:31 22° 92° (E) 02:57:32 435.225 FM
UOSAT-12 18 Apr 03:01:56 03:06:40 79° 238° (WSW) 03:11:21 437.025 FM, 437.400 FM
AO-27 18 Apr 03:06:08 03:11:20 87° 286° (WNW) 03:16:31 436.795 MHz FM
Sapphire 18 Apr 03:10:19 03:13:54 18° 321° (NW) 03:17:30 437.095 MHz 1200 baud AX-25 AFSK
ITAMSAT 1 18 Apr 03:17:20 03:22:30 71° 287° (WNW) 03:27:38 435.822 SSB
Oscar 19 18 Apr 03:26:32 03:31:08 33° 293° (WNW) 03:35:44 437.125 CW, 437.150 USB
Oscar 16 18 Apr 03:34:45 03:39:01 27° 295° (WNW) 03:43:18 437.025 USB, Beacon 2401.1428
TMSAT-1 18 Apr 03:38:06 03:43:08 43° 98° (E) 03:48:08 436.925 FM
AO-Echo 18 Apr 03:42:00 03:46:38 48° 289° (WNW) 03:51:09 ?
KITSAT 1 18 Apr 03:47:30 03:55:38 82° 302° (WNW) 04:03:49 435.175 FM
OPAL 18 Apr 03:52:51 03:55:53 16° 267° (W) 03:58:57 ?
Uosat F 18 Apr 03:59:12 04:03:14 24° 94° (E) 04:07:14 435.120 FM
Uribyol 2 18 Apr 04:06:56 04:11:08 26° 296° (WNW) 04:15:20 436.500 FM
JAS-1B 18 Apr 04:14:46 04:20:07 41° 98° (E) 04:25:35 435.800 - 435.900 CW/SSB
Gurwin Techsat 1B 18 Apr 04:28:38 04:33:46 50° 290° (WNW) 04:38:52 435.225 FM
AO-27 18 Apr 04:47:53 04:50:04 13° 303° (WNW) 04:52:15 436.795 MHz FM
STRAND 1 18 Apr 04:51:05 04:52:26 11° 56° (NE) 04:53:48 ?
AO-7 18 Apr 04:57:29 05:05:34 52° 102° (ESE) 05:13:36 29.400 - 29.500 MHz
ITAMSAT 1 18 Apr 05:00:24 05:01:04 10° 305° (NW) 05:01:44 435.822 SSB
TMSAT-1 18 Apr 05:18:29 05:22:50 27° 295° (WNW) 05:27:11 436.925 FM
Uosat F 18 Apr 05:37:28 05:42:10 41° 291° (WNW) 05:46:50 435.120 FM
KITSAT 1 18 Apr 05:45:50 05:52:20 26° 326° (NW) 05:58:52 435.175 FM
JAS-1B 18 Apr 06:05:57 06:10:40 27° 297° (WNW) 06:15:25 435.800 - 435.900 CW/SSB
Hamsat 18 Apr 06:12:48 06:16:17 23° 94° (E) 06:19:45 145.90 MHz
STRAND 1 18 Apr 06:25:39 06:30:46 77° 74° (ENE) 06:35:54 ?
MaSat-1 18 Apr 06:28:44 06:30:49 18° 57° (ENE) 06:33:06 437.345 MHz
RS-15 18 Apr 06:45:26 06:56:16 54° 113° (ESE) 07:06:46 29.354 - 29.394 USB, Beacon 29.352 USB
AO-7 18 Apr 06:50:38 06:58:08 40° 301° (WNW) 07:05:39 29.400 - 29.500 MHz
SO-67 18 Apr 07:06:30 07:08:26 14° 92° (E) 07:10:22 435.3500 MHz FM
Oscar 10/S400 18 Apr 07:10:02 03:35:24 37° 137° (SE) 11:50:10 145.825 - 145.975 CW/USB, Beacon 145.810 USB
JAS-2 18 Apr 07:37:09 07:42:21 51° 100° (E) 07:48:01 435.800 - 435.900 CW/SSB, 435.910 FM
KITSAT 1 18 Apr 07:47:33 07:51:16 13° 356° (N) 07:54:59 435.175 FM
Hamsat 18 Apr 07:48:24 07:52:19 33° 290° (WNW) 07:56:13 145.90 MHz
MaSat-1 18 Apr 08:06:48 08:09:12 22° 248° (WSW) 08:11:55 437.345 MHz
STRAND 1 18 Apr 08:08:13 08:10:32 13° 271° (W) 08:12:52 ?
Sapphire 18 Apr 08:28:56 08:32:38 18° 40° (NE) 08:36:19 437.095 MHz 1200 baud AX-25 AFSK
SO-67 18 Apr 08:38:31 08:41:44 34° 288° (WNW) 08:44:56 435.3500 MHz FM
RS-15 18 Apr 08:57:55 09:08:45 51° 316° (NW) 09:19:22 29.354 - 29.394 USB, Beacon 29.352 USB
HO-68 18 Apr 09:06:13 09:12:24 30° 95° (E) 09:18:33 435.675 MHz FM
PCSat 18 Apr 09:13:19 09:18:20 36° 50° (NE) 09:23:18 145.825 MHz
Oscar 11 18 Apr 09:20:52 09:22:30 12° 89° (E) 09:24:08 145.825 FM, Beacon 2401.500 USB
JAS-2 18 Apr 09:23:10 09:27:12 22° 296° (WNW) 09:31:28 435.800 - 435.900 CW/SSB, 435.910 FM
AO-40 18 Apr 09:43:56 10:25:19 12° 236° (SW) 11:19:51 Beacon 2401.320
KITSAT 1 18 Apr 09:44:50 09:50:33 20° 27° (NNE) 09:56:14 435.175 FM
Sapphire 18 Apr 10:11:22 10:16:50 89° 243° (WSW) 10:22:14 437.095 MHz 1200 baud AX-25 AFSK
FUNcube-1 18 Apr 10:41:04 10:44:44 28° 96° (E) 10:48:27 145.950 - 145.970 MHz USB
Saudisat 1A 18 Apr 10:43:49 10:47:22 24° 113° (ESE) 10:50:57 436.775 MHz
HO-68 18 Apr 10:53:26 11:00:23 55° 293° (WNW) 11:07:20 435.675 MHz FM
Oscar 11 18 Apr 10:54:48 10:59:08 66° 286° (WNW) 11:03:27 145.825 FM, Beacon 2401.500 USB
PCSat 18 Apr 10:56:48 11:01:44 36° 249° (WSW) 11:06:37 145.825 MHz
RS-15 18 Apr 11:15:58 11:24:31 25° 348° (NNW) 11:33:01 29.354 - 29.394 USB, Beacon 29.352 USB
KITSAT 1 18 Apr 11:39:51 11:47:52 59° 52° (NE) 11:55:48 435.175 FM
Sapphire 18 Apr 11:57:17 11:59:25 12° 258° (WSW) 12:01:32 437.095 MHz 1200 baud AX-25 AFSK
Uribyol 2 18 Apr 12:11:49 12:12:24 10° 55° (NE) 12:12:59 436.500 FM
FUNcube-1 18 Apr 12:17:32 12:21:06 27° 292° (WNW) 12:24:42 145.950 - 145.970 MHz USB
Saudisat 1A 18 Apr 12:22:31 12:26:46 42° 311° (NW) 12:31:01 436.775 MHz
HO-68 18 Apr 12:44:15 12:46:33 12° 314° (NW) 12:48:51 435.675 MHz FM
AO-27 18 Apr 12:47:36 12:51:27 22° 62° (ENE) 12:55:19 436.795 MHz FM
ITAMSAT 1 18 Apr 12:58:12 13:02:25 26° 64° (ENE) 13:06:38 435.822 SSB
Oscar 19 18 Apr 13:04:56 13:09:54 52° 71° (ENE) 13:14:55 437.125 CW, 437.150 USB
Oscar 16 18 Apr 13:12:52 13:17:56 66° 73° (ENE) 13:23:04 437.025 USB, Beacon 2401.1428
AO-Echo 18 Apr 13:17:28 13:21:59 30° 67° (ENE) 13:26:25 ?
TMSAT-1 18 Apr 13:24:55 13:26:05 11° 55° (NE) 13:27:15 436.925 FM
RS-15 18 Apr 13:32:28 13:41:40 29° 24° (NNE) 13:50:55 29.354 - 29.394 USB, Beacon 29.352 USB
KITSAT 1 18 Apr 13:35:49 13:42:52 34° 252° (WSW) 13:49:53 435.175 FM
Uribyol 2 18 Apr 13:45:48 13:50:56 71° 73° (ENE) 13:56:05 436.500 FM
AO-7 18 Apr 14:08:53 14:14:05 19° 47° (NE) 14:19:16 29.400 - 29.500 MHz
Gurwin Techsat 1B 18 Apr 14:11:20 14:16:11 38° 68° (ENE) 14:21:03 435.225 FM
OPAL 18 Apr 14:21:53 14:24:57 16° 92° (E) 14:28:01 ?
